Showing default

GHOST-5, 59130

Orbit data source: Space-Track

GHOST-5, 59130 is a payload satellite owned by Orbital Sidekick (US) in SSO that was launched on Mon, 04 Mar 2024 UTC via an FALCON 9 launch vehicle from the Air Force Western Test Range (AFWTR). Payload-class satellites include a variety of spacecraft equipped with specific instruments for various scientific and technological missions. These include communications satellites like Starlink; space stations such as the ISS; scientific satellites like the Hubble; Earth observation satellites from companies like Planet Labs, Umbra, and HawkEye 360; GPS; miniature CubeSats for education and research; and military/defense satellites.

Loading next visibility...
Identifier
59130, 2024-043AJ
Orbit
SSO
Country
Flag of USUS
Related business
Manufacturer
Astro Digital
Mission
Operational Commercial Imaging
Bus & Motor
CORVUS-XL, Unknown motor
Mass
85 kg wet, 85 kg dry
Launch date (UTC)
2024-03-04 (2 years ago)
Launch vehicle
FALCON 9
Launch site
Air Force Western Test Range (AFWTR)
Object type
Payload
Rocket body
Debris
Shape & HBR
Box + 1 Dish, 1.0 m
Radar Cross Section
0.425 m², Medium (>0.1 m² and < 1m²)

Expand to show TLE details & history
Last TLE update: 9 hours ago

TLE from 9 hours ago
0 GHOST-5
1 59130U 24043AJ  26125.35365282  .00018652  00000-0  44083-3 0  9995
2 59130  97.5541 268.2905 0007694  19.5072 340.6467 15.41857711120916
Epoch: 2026-05-05T08:29Z
TLE epoch observation values (Epoch: 2026-05-05T08:29:15.603Z)
Latitude
-0.00008°
Longitude
-82.25421°
Altitude
438.792 km
Speed
7.651 km/s
True Right ascension
17h 53m 09s
True Declination
0° 00' 00"
Sunlit
Object was in full shadow at epoch
Visualization orbit readout
Latitude
Unknown
Longitude
Unknown
Altitude
Unknown
Speed
Unknown
Apparent Right ascension
Unknown
Apparent Declination
Unknown
Sunlit
N/A
Visualization observer readout
Local Sidereal Time
01:25:25
Azimuth
Unknown
Elevation
Unknown
Doppler factor
Unknown
Orbital elements
Apogee altitude
442.814 km
Perigee altitude
432.326 km
Semi-major axis
6,815.707 km
Eccentricity
0.00077
Inclination
97.5541°
RAAN
268.2905°
Arg. of periapsis
19.5072°
True anomaly
340.61746°
Mean anomaly
340.6467°
Eccentric anomaly
340.63208°
Mean motion
3.85724 °/min
Orbital period
93.33 mins
BSTAR
0.00044083
Loading maneuver chart data...
Computing Atmospheric mass density...
Loading historical data...
Loading historical data...
Loading historical data...
Loading historical data...
Loading historical data...
Loading historical data...
Loading historical data...

Documentation

Showing up to 5 results
|